Maxwelton, WV

4:27 PM EDT on August 25, 2016 (GMT -0400)
Greenbrier Valley

Weather History for KLWB - November, 2011

Change the Weather History Date:

Sunday, November 20, 2011

  Actual Average Record
Temperature  
Mean Temperature 48 °F 39 °F  
Max Temperature 62 °F 51 °F 70 °F (1991)
Min Temperature 33 °F 28 °F 12 °F (1980)
Degree Days  
Heating Degree Days 18    
Month to date heating degree days  
Since 1 July heating degree days  
Cooling Degree Days 0    
Month to date cooling degree days  
Year to date cooling degree days  
Moisture  
Dew Point 42 °F    
Average Humidity 78    
Maximum Humidity 93    
Minimum Humidity 59    
Precipitation  
Precipitation 0.00 in 0.09 in 0.01 in (2011)
Month to date precipitation 1.88  
Year to date precipitation 35.83  
Snow  
Snow 0.00 in - - ()
Month to date snowfall  
Since 1 July snowfall  
Since 1 September snowfall  
Snow Depth -    
Sea Level Pressure  
Sea Level Pressure 30.25 in    
Wind  
Wind Speed 1 mph (SW)    
Max Wind Speed 6 mph    
Max Gust Speed -    
Visibility 10 miles    
Events Rain    
T = Trace of Precipitation, MM = Missing Value Source: NWS Daily Summary

Daily Weather History Graph

Daily Weather History Graph

Search for Another Location

Airport or City:

Trip Planner

Search our weather history database for the weather conditions in past years. The results will help you decide how hot, cold, wet, or windy it might be!

Date:

Astronomy

Nov. 20, 2011 Rise Set
Actual Time 7:07 AM EST 5:07 PM EST
Civil Twilight 6:38 AM EST 5:35 PM EST
Nautical Twilight 6:06 AM EST 6:07 PM EST
Astronomical Twilight 5:35 AM EST 6:38 PM EST
Moon 1:38 AM EST (11/20) 1:50 PM EST (11/20)
Length of Visible Light 10h 56m
Length of Day
10h 00m
Waning Crescent, 27% of the Moon is Illuminated
Nov 20
Waning Crescent
Nov 25
New
Dec 2
First Quarter
Dec 10
Full
Dec 17
Last Quarter

Hourly Weather History & Observations

Time (EST) Temp. Windchill Dew Point Humidity Pressure Visibility Wind Dir Wind Speed Gust Speed Precip Events Conditions
12:15 AM 33.8 °F - 30.2 °F 87% 30.27 in 10.0 mi Calm Calm - N/A   Clear
12:35 AM 33.8 °F 30.8 °F 32.0 °F 93% 30.27 in 10.0 mi NNE 3.5 mph - N/A   Clear
1:15 AM 33.8 °F - 32.0 °F 93% 30.27 in 10.0 mi Calm Calm - N/A   Scattered Clouds
1:35 AM 33.8 °F - 32.0 °F 93% 30.27 in 10.0 mi Calm Calm - N/A   Mostly Cloudy
1:55 AM 35.6 °F - 32.0 °F 87% 30.27 in 10.0 mi Calm Calm - N/A   Overcast
2:15 AM 37.4 °F 34.9 °F 32.0 °F 81% 30.27 in 10.0 mi NNE 3.5 mph - N/A   Mostly Cloudy
2:35 AM 35.6 °F - 32.0 °F 87% 30.27 in 10.0 mi Calm Calm - N/A   Scattered Clouds
2:55 AM 35.6 °F - 32.0 °F 87% 30.27 in 10.0 mi Calm Calm - N/A   Clear
3:15 AM 35.6 °F - 32.0 °F 87% 30.27 in 10.0 mi Calm Calm - N/A   Clear
3:35 AM 33.8 °F - 32.0 °F 93% 30.27 in 10.0 mi Calm Calm - N/A   Clear
3:55 AM 35.6 °F - 32.0 °F 87% 30.27 in 10.0 mi Calm Calm - N/A   Scattered Clouds
4:15 AM 37.4 °F - 32.0 °F 81% 30.27 in 10.0 mi Calm Calm - N/A   Overcast
4:35 AM 37.4 °F - 32.0 °F 81% 30.27 in 10.0 mi Calm Calm - N/A   Overcast
4:55 AM 35.6 °F - 32.0 °F 87% 30.26 in 10.0 mi Calm Calm - N/A   Mostly Cloudy
5:15 AM 37.4 °F - 32.0 °F 81% 30.26 in 10.0 mi Calm Calm - N/A   Clear
5:35 AM 37.4 °F - 32.0 °F 81% 30.26 in 10.0 mi Calm Calm - N/A   Clear
5:55 AM 33.8 °F - 32.0 °F 93% 30.26 in 10.0 mi Calm Calm - N/A   Clear
6:55 AM 33.8 °F - 32.0 °F 93% 30.26 in 10.0 mi Calm Calm - N/A   Scattered Clouds
7:15 AM 33.8 °F 29.6 °F 32.0 °F 93% 30.25 in 10.0 mi South 4.6 mph - N/A   Clear
8:15 AM 35.6 °F - 32.0 °F 87% 30.28 in 10.0 mi Calm Calm - N/A   Mostly Cloudy
8:35 AM 37.4 °F - 33.8 °F 87% 30.29 in 10.0 mi Calm Calm - N/A   Scattered Clouds
9:15 AM 41.0 °F - 35.6 °F 81% 30.29 in 10.0 mi Calm Calm - N/A   Clear
9:35 AM 42.8 °F - 37.4 °F 81% 30.30 in 10.0 mi Calm Calm - N/A   Scattered Clouds
9:55 AM 46.4 °F - 39.2 °F 76% 30.30 in 10.0 mi Calm Calm - N/A   Scattered Clouds
10:15 AM 51.8 °F - 42.8 °F 71% 30.30 in 10.0 mi Calm Calm - N/A   Scattered Clouds
10:35 AM 53.6 °F - 44.6 °F 72% 30.29 in 10.0 mi SW 3.5 mph - N/A   Scattered Clouds
10:55 AM 57.2 °F - 46.4 °F 67% 30.30 in 10.0 mi SW 5.8 mph - N/A   Mostly Cloudy
11:15 AM 59.0 °F - 46.4 °F 63% 30.29 in 10.0 mi SW 5.8 mph - N/A   Mostly Cloudy
11:35 AM 60.8 °F - 48.2 °F 63% 30.29 in 10.0 mi SW 4.6 mph - N/A   Scattered Clouds
11:55 AM 60.8 °F - 48.2 °F 63% 30.28 in 10.0 mi Calm Calm - N/A   Mostly Cloudy
12:15 PM 62.6 °F - 48.2 °F 59% 30.27 in 10.0 mi SW 3.5 mph - N/A   Scattered Clouds
12:35 PM 62.6 °F - 48.2 °F 59% 30.27 in 10.0 mi SSW 4.6 mph - N/A   Scattered Clouds
1:15 PM 62.6 °F - 50.0 °F 63% 30.26 in 10.0 mi SW 3.5 mph - N/A   Overcast
1:55 PM 60.8 °F - 50.0 °F 68% 30.25 in 10.0 mi Calm Calm - N/A   Overcast
2:15 PM 62.6 °F - 50.0 °F 63% 30.24 in 10.0 mi Calm Calm - N/A   Overcast
2:35 PM 62.6 °F - 50.0 °F 63% 30.24 in 10.0 mi Calm Calm - N/A   Overcast
2:55 PM 62.6 °F - 50.0 °F 63% 30.23 in 10.0 mi Calm Calm - N/A   Overcast
3:15 PM 62.6 °F - 50.0 °F 63% 30.24 in 10.0 mi Calm Calm - N/A   Overcast
3:35 PM 60.8 °F - 50.0 °F 68% 30.24 in 10.0 mi Calm Calm - N/A   Overcast
3:55 PM 60.8 °F - 50.0 °F 68% 30.22 in 10.0 mi Calm Calm - N/A   Overcast
4:15 PM 60.8 °F - 50.0 °F 68% 30.21 in 10.0 mi Calm Calm - N/A   Overcast
4:35 PM 60.8 °F - 50.0 °F 68% 30.22 in 10.0 mi Calm Calm - N/A   Overcast
4:55 PM 60.8 °F - 50.0 °F 68% 30.22 in 10.0 mi Calm Calm - N/A   Overcast
5:15 PM 59.0 °F - 50.0 °F 72% 30.23 in 10.0 mi Calm Calm - N/A   Overcast
5:35 PM 57.2 °F - 50.0 °F 77% 30.24 in 10.0 mi Calm Calm - N/A   Overcast
6:15 PM 55.4 °F - 50.0 °F 82% 30.22 in 10.0 mi North 3.5 mph - N/A   Overcast
6:35 PM 55.4 °F - 50.0 °F 82% 30.23 in 10.0 mi Calm Calm - N/A   Overcast
6:55 PM 55.4 °F - 50.0 °F 82% 30.22 in 10.0 mi Calm Calm - N/A   Overcast
7:15 PM 55.4 °F - 50.0 °F 82% 30.22 in 10.0 mi Calm Calm - N/A   Overcast
7:35 PM 53.6 °F - 48.2 °F 82% 30.23 in 10.0 mi Calm Calm - N/A   Overcast
7:55 PM 53.6 °F - 48.2 °F 82% 30.22 in 10.0 mi Calm Calm - N/A   Overcast
8:55 PM 53.6 °F - 48.2 °F 82% 30.20 in 10.0 mi Calm Calm - N/A Rain Light Rain
9:15 PM 53.6 °F - 48.2 °F 82% 30.21 in 10.0 mi Calm Calm - N/A   Overcast
9:35 PM 53.6 °F - 48.2 °F 82% 30.21 in 10.0 mi Calm Calm - N/A   Overcast
9:55 PM 53.6 °F - 48.2 °F 82% 30.21 in 10.0 mi Calm Calm - N/A   Overcast
10:15 PM 53.6 °F - 46.4 °F 77% 30.21 in 10.0 mi Calm Calm - N/A   Overcast
10:35 PM 53.6 °F - 48.2 °F 82% 30.21 in 10.0 mi Calm Calm - N/A   Drizzle
10:55 PM 53.6 °F - 50.0 °F 88% 30.21 in 10.0 mi Calm Calm - 0.01 in Rain Light Rain
11:15 PM 51.8 °F - 50.0 °F 94% 30.21 in 7.0 mi Calm Calm - N/A   Light Drizzle
11:35 PM 51.8 °F - 50.0 °F 94% 30.21 in 7.0 mi Calm Calm - N/A   Overcast
11:55 PM 51.8 °F - 50.0 °F 94% 30.20 in 7.0 mi Calm Calm - N/A   Overcast